Theta_e
320 336 336 337 349 348 351 347 344 347 346 342 343 349 354 353 350 353 341 353 352 353 351 346 334 339 342 344 341 336 338 345 345 346 346 347 345 346 346 346 346 347 346 343 342 340 339 338 335
322 328 334 335 348 350 346 347 346 344 343 340 342 348 354 356 351 345 339 351 353 352 351 348 338 336 334 333 334 338 340 344 345 346 347 347 345 345 346 346 344 344 343 340 338 337 336 334 333
329 332 336 336 342 344 344 346 346 342 343 347 346 348 351 355 349 342 345 350 351 351 352 347 341 339 336 336 337 341 342 344 345 346 346 347 345 346 344 343 342 341 340 337 335 334 332 332 333
333 333 333 337 337 337 340 344 344 346 349 348 355 353 344 348 341 338 347 348 351 352 351 349 345 341 340 340 341 343 344 345 345 345 346 347 345 343 341 340 340 340 337 335 333 331 331 333 333
331 333 334 337 336 335 341 341 342 347 348 353 350 349 345 339 339 342 344 347 347 351 350 349 347 342 344 345 344 344 345 345 345 347 346 345 340 339 338 338 337 337 336 334 332 331 332 332 332
331 331 334 340 338 337 342 346 350 350 350 352 348 350 349 341 341 341 345 344 350 350 350 350 347 343 342 344 342 342 344 344 345 344 344 342 338 337 336 336 335 333 333 332 331 331 331 330 329
329 330 333 335 337 336 342 346 351 352 348 355 350 352 349 344 343 341 344 345 350 351 350 350 348 345 334 333 338 338 336 338 341 341 341 339 337 335 334 333 332 331 331 330 330 330 329 328 327
329 329 331 334 337 338 346 347 347 353 354 346 350 352 351 345 342 340 341 345 346 349 349 348 349 348 343 325 321 326 327 332 333 334 332 332 332 331 330 330 330 336 331 329 329 328 327 326 328
327 328 331 334 337 338 345 353 351 348 352 350 349 349 347 343 339 338 338 343 344 346 347 348 347 345 346 342 325 321 324 326 327 329 329 329 331 341 342 339 339 339 338 330 328 326 324 326 328
325 329 332 336 340 342 350 352 352 350 349 349 347 344 342 341 340 340 339 337 340 339 340 342 341 339 342 348 344 338 339 333 332 338 341 342 339 341 344 345 344 340 334 329 327 326 335 336 334
324 327 331 335 338 345 351 351 353 354 354 349 347 347 346 344 344 343 344 342 335 334 333 336 339 340 341 338 341 340 342 342 341 341 343 344 344 343 343 342 341 341 340 340 339 340 340 341 347
323 325 330 333 338 344 348 346 347 348 348 346 344 341 340 339 338 339 339 339 342 343 342 342 343 342 341 341 339 337 339 340 341 344 345 344 345 345 342 341 340 340 342 337 338 340 344 345 346
323 325 331 334 337 339 340 340 340 340 337 336 336 336 335 334 332 331 332 332 332 333 333 332 333 341 346 345 341 337 337 337 337 339 343 345 345 344 342 341 340 339 337 335 335 337 339 344 343
323 324 331 334 335 336 337 337 337 335 332 330 329 328 327 327 327 326 326 326 327 327 328 327 326 330 337 342 347 347 342 340 337 337 337 339 343 342 341 341 340 339 338 336 335 334 334 341 343
323 322 330 330 332 334 334 336 337 332 329 328 326 325 324 323 322 322 323 323 323 323 323 323 323 323 329 332 339 346 348 343 341 339 337 338 339 341 341 342 341 339 337 336 335 334 334 337 340
321 322 323 330 330 331 332 336 333 331 329 327 325 324 322 321 319 319 319 319 320 320 320 319 319 320 322 325 330 339 345 347 346 346 344 342 344 343 343 341 341 340 339 338 337 336 335 335 335
321 321 323 325 328 330 330 333 330 329 328 327 325 323 321 320 318 317 317 317 317 317 317 317 316 316 318 320 325 331 337 336 340 339 338 340 339 340 345 347 346 344 343 341 341 341 341 339 339
321 321 323 325 327 329 329 331 329 327 327 326 324 322 320 319 317 315 315 315 315 316 315 315 316 314 315 316 319 321 325 326 325 324 325 328 328 331 337 341 340 339 341 347 349 350 348 349 350
323 323 322 327 328 327 330 329 327 326 326 324 323 321 319 317 315 314 314 314 314 314 315 315 315 314 314 314 315 317 319 318 318 318 317 319 319 320 323 327 329 332 332 330 333 336 344 348 351
322 323 328 330 328 328 330 329 326 325 325 323 322 320 319 317 315 314 313 313 313 314 314 314 314 313 313 314 314 315 316 318 316 315 316 315 316 316 315 316 316 316 316 318 322 327 327 331 337
322 322 324 330 328 327 328 328 326 324 323 321 320 318 317 316 315 314 313 312 312 313 313 314 313 313 313 312 313 314 314 314 313 314 313 313 314 312 314 316 316 315 315 314 314 317 322 323 325
322 323 322 324 330 328 327 327 327 325 322 320 319 317 316 315 314 313 312 311 311 311 312 312 312 311 312 311 311 312 312 313 312 313 312 313 310 312 312 312 311 311 312 315 315 314 315 319 319
322 322 322 321 330 328 328 327 328 325 323 322 320 317 315 313 313 312 311 310 309 310 310 311 310 311 311 311 311 311 311 311 311 310 310 310 310 310 310 309 308 310 311 310 310 312 314 314 317
325 325 324 324 325 330 329 327 329 327 326 323 319 316 314 313 312 311 311 311 310 309 309 309 310 310 310 310 310 310 310 310 311 309 309 308 308 308 309 308 308 307 308 308 309 310 311 312 313
326 327 328 327 327 326 328 328 330 329 326 322 318 315 314 313 312 312 311 310 309 309 309 309 309 309 309 309 309 309 309 308 308 308 307 307 307 307 306 305 305 305 305 305 305 306 307 308 310
327 328 329 330 328 327 329 328 329 327 326 320 317 315 313 313 312 311 310 309 309 309 308 308 308 308 307 308 308 308 308 308 309 307 306 306 305 305 304 303 303 302 303 303 303 303 303 304 305
325 326 327 329 330 329 329 328 322 320 318 317 314 313 313 312 311 310 309 308 308 308 308 307 307 307 307 307 307 307 306 307 307 307 306 305 304 304 303 302 301 301 301 301 301 301 301 301 302
324 324 327 329 335 335 328 331 328 321 317 315 314 314 313 311 310 310 309 308 307 307 307 307 306 306 306 306 306 307 306 305 305 306 305 305 304 303 302 301 301 300 300 300 299 299 298 299 300
326 324 324 326 329 336 340 336 328 323 319 316 315 314 312 311 310 309 308 308 307 307 307 307 306 305 305 305 306 307 306 305 305 305 304 303 303 303 302 301 300 300 299 299 299 298 298 298 298
328 327 328 330 330 331 332 331 326 323 319 317 313 311 310 310 309 309 308 308 307 306 306 306 305 305 305 305 305 306 306 305 304 304 304 303 302 301 302 302 301 300 300 300 299 298 297 297 296
Wind_Speed
16 11 12 14 4 6 17 11 6 12 11 10 10 17 23 19 9 7 6 30 27 24 19 16 16 15 14 13 12 11 13 13 13 13 12 12 13 13 14 13 13 12 11 11 11 11 11 11 10
17 14 18 9 3 7 6 14 4 13 11 9 11 21 25 22 18 17 13 30 27 21 19 16 16 14 13 12 12 13 13 12 13 12 11 12 11 11 11 11 10 9 9 9 8 8 9 9 8
23 16 10 7 7 9 5 7 3 12 9 13 10 21 10 16 20 20 26 28 25 22 19 14 14 13 13 12 13 12 12 11 13 11 10 10 10 10 9 9 8 7 6 6 6 6 7 7 7
13 9 8 12 6 6 4 3 3 16 28 28 19 8 17 17 19 23 27 22 27 20 17 14 12 14 12 11 11 11 12 12 10 10 8 7 7 7 7 6 5 4 4 4 5 5 5 6 7
23 10 14 14 6 5 6 6 6 17 23 26 25 20 18 23 26 25 22 26 20 23 17 15 9 11 11 10 9 9 10 9 10 9 7 6 5 5 4 3 2 1 2 2 3 4 4 5 5
11 12 15 3 13 6 12 26 27 27 31 23 28 24 20 22 24 22 24 22 26 22 18 14 9 8 11 11 8 10 9 8 8 8 7 5 5 5 4 2 1 2 3 3 4 5 6 7 7
14 14 17 14 11 11 11 16 15 18 28 20 19 24 19 19 20 21 22 23 25 21 16 13 12 8 10 11 11 9 10 9 8 8 7 6 6 5 4 4 3 4 6 7 7 8 9 9 9
13 14 21 18 12 13 19 13 13 5 9 12 11 14 17 15 21 21 18 23 18 17 16 14 12 12 10 11 8 8 9 8 8 7 7 6 6 5 5 5 5 6 8 9 10 11 11 12 12
19 12 15 20 15 12 16 26 16 21 14 14 21 22 20 20 22 20 16 14 21 20 19 18 17 11 17 13 8 6 6 6 6 6 5 5 5 9 9 8 6 10 13 12 11 11 12 15 17
15 12 20 16 16 10 19 30 17 24 23 23 23 22 22 20 19 20 19 15 12 9 9 10 13 7 15 13 3 6 4 3 3 6 6 5 6 10 5 6 11 15 14 13 13 13 14 14 19
17 17 15 18 17 17 14 21 16 18 22 21 19 20 21 26 26 28 29 26 16 13 8 8 7 4 5 7 6 10 12 9 8 8 10 9 10 11 11 12 16 15 13 11 11 14 16 16 11
16 21 8 13 18 21 20 22 22 21 19 20 18 18 21 20 21 23 22 22 22 22 23 27 12 7 9 6 1 2 2 9 9 12 11 10 9 10 10 10 13 9 13 14 10 14 18 12 11
15 16 10 14 18 19 20 17 17 17 17 17 17 18 17 16 18 19 17 17 17 19 19 20 20 15 12 6 7 4 6 4 5 3 6 6 9 11 11 12 13 14 15 14 15 15 16 12 15
14 16 18 19 18 19 19 15 13 14 14 14 15 15 14 14 14 14 15 15 16 16 17 17 18 15 12 14 9 8 7 7 6 7 7 6 5 11 13 13 14 15 15 16 17 17 18 15 15
10 15 16 16 18 16 19 16 13 15 14 13 14 13 13 13 14 14 12 13 13 13 14 17 17 17 11 13 10 6 8 7 7 7 6 8 10 11 12 14 16 16 17 18 18 19 19 20 20
16 17 15 18 17 13 14 15 13 12 13 12 13 12 11 10 12 12 13 12 13 13 15 15 16 16 16 12 10 9 14 9 8 7 11 6 8 6 10 11 14 18 18 18 18 20 20 21 20
11 13 18 17 19 18 16 16 12 12 12 11 10 10 10 11 11 11 12 12 13 13 14 16 18 18 17 16 10 14 12 17 12 11 13 14 11 12 7 9 12 16 18 17 19 21 21 22 22
17 19 20 22 20 21 21 17 14 11 11 11 9 9 9 9 10 10 11 11 13 14 15 17 17 22 18 18 16 15 13 15 13 15 16 14 18 17 14 11 13 20 20 15 16 21 20 20 22
19 19 21 10 15 15 13 16 15 12 12 11 11 10 9 9 11 11 11 11 12 15 17 18 19 22 20 20 19 18 17 17 18 20 20 21 22 22 20 19 20 19 21 24 24 21 19 23 22
22 20 8 15 11 5 12 13 13 13 13 12 11 10 11 10 9 11 11 12 13 15 16 18 19 20 21 17 18 15 13 14 16 17 17 21 22 21 23 24 24 23 26 27 26 24 24 23 21
17 19 13 18 13 9 14 13 14 14 9 9 9 9 8 9 9 9 11 12 13 14 16 17 18 18 20 20 18 19 17 15 18 20 24 22 19 20 20 21 24 28 28 30 29 23 20 19 30
14 14 17 13 16 9 17 10 20 19 15 13 12 12 11 10 10 10 11 12 13 14 16 17 18 20 20 22 20 19 16 15 17 19 20 18 20 19 19 21 24 25 26 26 28 26 25 21 25
19 17 20 19 15 11 19 12 18 22 20 19 15 11 10 9 9 10 11 11 12 13 16 15 16 16 17 17 18 17 18 17 16 21 20 22 19 20 22 24 27 23 22 25 28 27 26 23 22
18 16 20 14 14 14 20 18 11 22 25 21 15 13 12 12 11 11 11 12 11 11 12 15 14 15 16 17 18 20 19 19 19 22 21 22 22 22 23 28 25 25 25 26 27 26 25 26 26
8 13 11 14 14 16 18 20 16 23 25 22 19 15 11 11 10 9 8 11 11 12 11 12 12 13 14 15 15 17 18 19 18 19 21 21 22 23 26 27 27 27 27 28 28 29 28 28 28
16 16 14 18 15 17 21 15 7 9 20 21 18 15 11 9 8 9 8 9 11 11 11 12 12 12 13 13 12 13 15 16 17 18 19 20 21 22 24 25 25 26 26 27 27 28 28 29 30
19 17 16 21 22 17 6 8 9 15 15 17 15 12 10 9 7 8 8 8 10 9 10 11 10 10 11 11 12 13 16 15 16 15 16 16 17 19 22 23 24 24 25 26 26 27 29 30 31
12 13 15 10 18 21 19 13 10 17 15 14 14 12 9 8 8 6 10 7 8 8 10 10 9 10 11 12 12 13 14 14 15 15 17 18 17 18 19 21 22 24 24 26 26 26 27 27 28
13 15 17 16 11 7 7 2 6 18 17 15 13 11 8 7 8 7 8 7 8 8 9 10 9 10 11 11 11 12 13 14 16 16 18 20 21 21 19 20 24 24 26 25 27 27 27 30 32
16 16 12 7 14 14 14 4 4 12 14 14 13 12 9 7 5 7 8 7 7 8 9 10 9 10 11 11 11 12 13 13 16 18 19 20 21 23 23 21 23 26 27 26 29 27 34 33 35
Wind_Direction
303 279 241 240 299 189 258 142 342 48 22 74 59 74 74 60 94 151 211 110 112 116 117 116 112 110 110 111 112 111 109 105 102 98 98 95 99 100 100 98 92 87 85 80 77 73 68 61 53
298 299 267 259 159 303 1 84 348 139 206 101 84 73 65 64 85 114 145 109 111 117 120 117 119 120 122 123 121 118 117 116 113 107 105 103 102 104 102 99 92 85 80 77 68 60 55 47 39
301 267 271 231 219 250 107 121 253 112 117 80 32 37 41 79 77 111 114 111 116 122 124 118 121 122 123 125 128 128 123 119 115 110 109 105 110 113 108 102 90 80 67 60 54 45 37 29 21
291 297 225 252 265 85 66 50 113 68 67 93 85 38 58 75 98 124 117 119 122 116 123 124 121 125 125 126 130 129 126 125 117 116 119 115 124 122 119 111 94 75 63 39 30 22 18 15 7
277 265 279 279 88 65 74 122 241 116 128 141 149 113 100 104 116 118 123 119 119 120 125 125 116 124 121 118 126 131 135 131 132 131 138 142 141 138 132 125 115 73 23 12 358 344 342 346 344
280 270 269 314 268 97 73 54 39 44 33 38 105 108 106 116 117 129 128 120 125 122 128 124 119 123 133 136 138 147 146 146 144 151 158 168 167 171 168 186 261 300 305 311 309 307 315 314 314
259 276 271 280 246 99 66 80 49 45 64 9 340 102 107 115 116 110 109 113 106 115 124 131 133 130 146 152 156 159 163 164 169 174 179 188 197 209 212 230 250 284 294 297 298 301 304 302 299
261 272 285 275 96 85 73 82 107 57 80 112 259 124 112 113 116 121 125 119 125 129 133 139 148 152 155 154 162 171 175 181 187 198 197 208 215 234 250 254 247 292 293 288 291 296 297 288 277
261 272 265 264 109 104 105 117 147 143 126 115 91 102 116 128 121 113 115 121 133 145 147 150 154 167 165 161 155 177 193 197 211 221 228 238 244 253 271 260 245 278 286 282 284 287 291 287 284
243 239 257 75 78 77 54 103 104 103 106 101 99 112 127 129 124 123 122 119 115 97 63 80 83 120 132 142 133 145 187 199 228 229 243 274 240 264 263 265 269 282 279 279 276 276 283 284 286
225 244 252 92 109 96 84 69 105 94 74 77 83 70 61 55 51 56 51 47 83 104 101 81 50 3 359 171 156 170 200 187 208 213 223 244 259 260 256 253 260 256 264 267 283 268 274 271 302
227 234 274 70 90 92 85 77 75 67 66 69 68 68 64 58 51 48 49 41 38 43 35 29 67 37 3 3 156 256 245 190 208 214 219 240 252 269 276 293 298 281 254 272 266 276 274 260 281
216 244 128 94 88 112 102 87 91 85 77 73 73 71 70 68 59 50 49 46 36 34 28 23 25 43 20 2 325 313 325 302 262 273 233 232 259 273 282 288 297 296 301 304 298 286 289 292 287
217 233 128 122 120 110 116 108 106 98 94 91 87 82 74 72 74 64 48 40 38 29 22 16 21 19 16 9 9 352 344 310 308 284 292 317 266 278 291 294 289 284 284 285 289 293 297 300 300
227 215 132 147 128 121 113 111 114 128 123 114 102 92 84 76 71 67 58 51 39 35 23 21 19 12 21 4 22 355 321 304 320 317 301 270 271 279 289 294 295 295 295 296 294 291 285 282 272
224 212 219 148 152 153 220 136 138 143 140 128 120 112 97 78 71 67 67 55 47 40 33 27 22 17 18 8 17 12 355 36 29 16 29 27 30 331 275 278 285 290 293 293 292 288 283 284 286
206 212 217 209 170 180 221 134 154 157 148 139 133 123 114 103 78 64 63 61 51 45 38 34 26 22 20 16 23 22 39 35 25 21 23 5 13 8 14 350 323 299 302 299 294 287 284 278 271
213 225 216 215 187 188 202 126 156 161 157 153 142 126 113 97 89 76 67 61 58 51 43 38 34 30 29 22 19 20 22 16 18 16 15 3 3 357 353 344 343 356 345 329 328 305 286 288 296
239 213 225 107 157 197 153 142 160 169 168 161 159 143 122 107 98 89 76 65 59 53 48 40 35 29 31 27 22 17 9 19 18 19 13 5 5 0 351 351 343 337 334 337 341 345 325 294 297
252 265 37 106 135 228 133 158 163 181 186 169 157 150 141 128 106 93 81 75 65 58 50 45 39 35 28 24 22 17 13 25 19 12 16 11 9 6 359 356 354 346 340 332 333 343 341 326 321
234 249 224 167 164 241 156 178 180 192 163 155 152 136 129 122 118 102 87 75 72 65 52 47 40 38 33 33 26 24 27 25 16 10 8 16 6 6 6 0 5 1 353 346 344 342 340 321 319
244 252 256 236 162 208 181 234 186 187 184 182 168 166 146 137 121 109 94 79 74 68 60 51 42 36 33 32 29 32 23 18 10 13 3 7 4 5 8 6 359 354 351 343 344 345 337 330 319
252 237 245 234 185 233 197 234 200 177 189 187 177 154 140 133 125 118 107 91 83 77 75 60 54 47 43 41 39 35 26 21 14 13 7 5 4 7 10 2 357 353 347 340 336 336 331 324 312
252 234 255 219 220 218 241 212 206 181 188 175 162 159 152 134 121 116 111 99 79 70 77 66 57 49 44 40 40 35 25 20 26 12 12 1 4 2 3 1 356 350 345 340 335 330 327 322 312
236 257 244 236 225 236 233 241 235 173 178 167 156 150 151 148 132 119 101 96 84 72 62 62 54 53 42 37 37 34 29 27 26 20 8 10 3 3 0 359 355 350 346 341 336 331 327 322 317
209 224 246 249 229 241 232 247 56 84 142 135 143 145 141 130 111 98 82 80 78 75 59 52 48 51 41 38 29 33 29 22 24 21 12 14 7 359 359 356 352 349 346 343 340 333 326 321 316
249 261 241 259 274 275 260 90 82 104 104 121 129 140 133 109 109 104 90 74 77 70 67 54 42 45 45 39 27 36 33 19 21 14 12 11 5 357 356 354 351 348 346 345 342 336 330 326 321
264 273 274 247 266 264 270 166 154 161 152 150 143 139 130 139 130 113 102 76 69 63 73 54 35 41 42 29 24 34 25 20 12 11 9 4 1 358 355 352 350 348 345 342 341 338 332 324 321
243 233 248 269 260 258 310 152 117 159 160 146 153 137 147 147 131 121 99 84 65 53 47 51 29 33 34 22 19 34 21 20 6 12 8 3 355 351 351 353 352 346 343 339 341 336 336 327 320
302 308 298 295 263 265 263 70 98 128 139 136 125 134 137 128 117 104 98 79 60 49 37 42 22 29 25 14 15 27 16 15 6 10 3 359 355 353 346 348 351 345 342 335 337 336 333 325 319